When you browse on this site, cookies collect data to enhance your experience and personalize the content and advertising you see.
Visit our Privacy Policy to learn more. By continuing to use the site, you agree to this use of cookies and data.
  • En España
  • Lista de países
  • Para 7 días
  • Temperatura del agua
  • El tiempo en el mapa
  • Informadores
  • user-avatar
    Iniciar sesión

    Tiempo cada hora Gold Coast

    Hoy, 6 Junio, Sábado

    Tiempo Temperatura Precipitaciones Viento Presión Humedad
    00:00 +11°C° 0 mm 3 mps 765 mmHg 92%
    01:00 +12°C° 0 mm 2 mps 764 mmHg 92%
    02:00 +12°C° 0 mm 2 mps 764 mmHg 93%
    03:00 +12°C° 0 mm 2 mps 764 mmHg 93%
    04:00 +12°C° 0 mm 2 mps 763 mmHg 96%
    05:00 +12°C° 0 mm 2 mps 763 mmHg 95%
    06:00 +12°C° 0 mm 2 mps 764 mmHg 93%
    07:00 +12°C° 0 mm 2 mps 764 mmHg 92%
    08:00 +15°C° 0 mm 2 mps 764 mmHg 78%
    09:00 +20°C° 0 mm 1 mps 764 mmHg 65%
    10:00 +23°C° 0 mm 1 mps 764 mmHg 49%
    11:00 +23°C° 0 mm 1 mps 763 mmHg 47%
    12:00 +24°C° 0 mm 2 mps 762 mmHg 45%
    13:00 +24°C° 0 mm 2 mps 762 mmHg 43%
    14:00 +23°C° 0 mm 2 mps 762 mmHg 51%
    15:00 +21°C° 0 mm 2 mps 761 mmHg 58%
    16:00 +20°C° 0 mm 2 mps 761 mmHg 65%
    17:00 +18°C° 0 mm 2 mps 762 mmHg 73%
    18:00 +16°C° 0 mm 2 mps 762 mmHg 82%
    19:00 +14°C° 0 mm 2 mps 762 mmHg 91%
    20:00 +14°C° 0 mm 2 mps 762 mmHg 92%
    21:00 +14°C° 0 mm 2 mps 762 mmHg 93%
    22:00 +14°C° 0 mm 2 mps 762 mmHg 94%
    23:00 +13°C° 0.1 mm 2 mps 762 mmHg 94%

    Mañana, 7 Junio, Domingo

    Tiempo Temperatura Precipitaciones Viento Presión Humedad
    00:00 +13°C° 0.1 mm 2 mps 762 mmHg 94%
    01:00 +13°C° 0.1 mm 2 mps 762 mmHg 95%
    02:00 +13°C° 0.1 mm 2 mps 762 mmHg 95%
    03:00 +13°C° 0.1 mm 2 mps 762 mmHg 95%
    04:00 +13°C° 0.1 mm 2 mps 762 mmHg 95%
    05:00 +13°C° 0.1 mm 2 mps 762 mmHg 94%
    06:00 +13°C° 0.1 mm 2 mps 762 mmHg 93%
    07:00 +13°C° 0.1 mm 2 mps 763 mmHg 93%
    08:00 +16°C° 0.1 mm 1 mps 762 mmHg 80%
    09:00 +20°C° 0.1 mm 1 mps 762 mmHg 67%
    10:00 +23°C° 0.1 mm 1 mps 762 mmHg 55%
    11:00 +23°C° 0.1 mm 1 mps 761 mmHg 53%
    12:00 +23°C° 0.1 mm 1 mps 761 mmHg 52%
    13:00 +23°C° 0.1 mm 2 mps 761 mmHg 50%
    14:00 +21°C° 0.1 mm 2 mps 760 mmHg 59%
    15:00 +20°C° 0.1 mm 2 mps 760 mmHg 67%
    16:00 +19°C° 0.1 mm 2 mps 760 mmHg 75%
    17:00 +17°C° 0.4 mm 2 mps 761 mmHg 81%
    18:00 +16°C° 0.4 mm 2 mps 761 mmHg 86%
    19:00 +15°C° 0.4 mm 2 mps 761 mmHg 92%
    20:00 +15°C° 0.9 mm 1 mps 762 mmHg 92%
    21:00 +15°C° 0.9 mm 1 mps 762 mmHg 92%
    22:00 +15°C° 0.9 mm 1 mps 762 mmHg 92%
    23:00 +14°C° 0.2 mm 1 mps 762 mmHg 92%

    Pasado mañana, 8 Junio, Lunes

    Tiempo Temperatura Precipitaciones Viento Presión Humedad
    00:00 +14°C° 0.2 mm 1 mps 762 mmHg 93%
    01:00 +13°C° 0.2 mm 1 mps 762 mmHg 93%
    02:00 +13°C° 0.1 mm 2 mps 762 mmHg 94%
    03:00 +13°C° 0.1 mm 2 mps 762 mmHg 94%
    04:00 +12°C° 0.1 mm 2 mps 761 mmHg 94%
    05:00 +12°C° 0.1 mm 2 mps 762 mmHg 93%
    06:00 +12°C° 0.1 mm 2 mps 763 mmHg 93%
    07:00 +12°C° 0.1 mm 2 mps 763 mmHg 92%
    08:00 +14°C° 0 mm 2 mps 763 mmHg 80%
    09:00 +17°C° 0 mm 2 mps 763 mmHg 68%
    10:00 +19°C° 0 mm 2 mps 763 mmHg 56%
    11:00 +20°C° 0 mm 3 mps 763 mmHg 51%
    12:00 +21°C° 0 mm 3 mps 762 mmHg 45%
    13:00 +22°C° 0 mm 4 mps 762 mmHg 40%
    14:00 +21°C° 0 mm 4 mps 762 mmHg 45%
    15:00 +20°C° 0 mm 4 mps 762 mmHg 50%
    16:00 +19°C° 0 mm 4 mps 763 mmHg 55%
    17:00 +17°C° 0 mm 4 mps 763 mmHg 66%
    18:00 +14°C° 0 mm 4 mps 764 mmHg 77%
    19:00 +13°C° 0 mm 5 mps 765 mmHg 89%
    20:00 +12°C° 0.2 mm 5 mps 765 mmHg 91%
    21:00 +12°C° 0.2 mm 5 mps 765 mmHg 93%
    22:00 +12°C° 0.2 mm 5 mps 766 mmHg 95%
    23:00 +12°C° 0.1 mm 5 mps 766 mmHg 95%

    9 Junio, Martes

    Tiempo Temperatura Precipitaciones Viento Presión Humedad
    00:00 +12°C° 0.1 mm 5 mps 765 mmHg 95%
    01:00 +10°C° 0.1 mm 5 mps 765 mmHg 94%
    02:00 +10°C° 0.1 mm 5 mps 765 mmHg 95%
    03:00 +10°C° 0.1 mm 5 mps 765 mmHg 95%
    04:00 +11°C° 0.1 mm 4 mps 765 mmHg 95%
    05:00 +11°C° 0 mm 4 mps 765 mmHg 95%
    06:00 +11°C° 0 mm 4 mps 766 mmHg 95%
    07:00 +11°C° 0 mm 4 mps 766 mmHg 95%
    08:00 +14°C° 0.1 mm 4 mps 766 mmHg 84%
    09:00 +16°C° 0.1 mm 5 mps 767 mmHg 74%
    10:00 +20°C° 0.1 mm 5 mps 767 mmHg 64%
    11:00 +21°C° 0 mm 5 mps 766 mmHg 62%
    12:00 +21°C° 0 mm 5 mps 766 mmHg 60%
    13:00 +22°C° 0 mm 6 mps 765 mmHg 58%
    14:00 +21°C° 0.1 mm 5 mps 765 mmHg 63%
    15:00 +20°C° 0.1 mm 5 mps 765 mmHg 68%
    16:00 +19°C° 0.1 mm 5 mps 765 mmHg 74%
    17:00 +17°C° 0.2 mm 5 mps 766 mmHg 80%
    18:00 +16°C° 0.2 mm 5 mps 766 mmHg 86%
    19:00 +15°C° 0.2 mm 5 mps 766 mmHg 92%
    20:00 +15°C° 0.1 mm 5 mps 766 mmHg 93%
    21:00 +14°C° 0.1 mm 4 mps 766 mmHg 94%
    22:00 +14°C° 0.1 mm 4 mps 766 mmHg 95%
    23:00 +14°C° 0.5 mm 4 mps 766 mmHg 95%

    10 Junio, Miércoles

    Tiempo Temperatura Precipitaciones Viento Presión Humedad
    00:00 +14°C° 0.5 mm 4 mps 766 mmHg 96%
    01:00 +14°C° 0.5 mm 4 mps 766 mmHg 96%
    02:00 +14°C° 0.7 mm 3 mps 766 mmHg 96%
    03:00 +14°C° 0.7 mm 3 mps 765 mmHg 97%
    04:00 +14°C° 0.7 mm 3 mps 765 mmHg 97%
    05:00 +14°C° 0.6 mm 3 mps 765 mmHg 97%
    06:00 +14°C° 0.6 mm 3 mps 766 mmHg 97%
    07:00 +14°C° 0.6 mm 4 mps 766 mmHg 97%
    08:00 +16°C° 0.5 mm 3 mps 766 mmHg 94%
    09:00 +17°C° 0.5 mm 3 mps 766 mmHg 91%
    10:00 +18°C° 0.5 mm 3 mps 766 mmHg 88%
    11:00 +18°C° 1 mm 3 mps 765 mmHg 88%
    12:00 +19°C° 1 mm 3 mps 765 mmHg 89%
    13:00 +19°C° 1 mm 3 mps 764 mmHg 89%
    14:00 +18°C° 0.7 mm 3 mps 764 mmHg 90%
    15:00 +18°C° 0.7 mm 3 mps 763 mmHg 91%
    16:00 +17°C° 0.7 mm 2 mps 763 mmHg 92%
    17:00 +16°C° 0 mm 3 mps 764 mmHg 93%
    18:00 +16°C° 0 mm 3 mps 764 mmHg 94%
    19:00 +14°C° 0 mm 3 mps 764 mmHg 96%
    20:00 +14°C° 0 mm 3 mps 764 mmHg 96%
    21:00 +13°C° 0 mm 3 mps 764 mmHg 96%
    22:00 +13°C° 0 mm 3 mps 764 mmHg 96%
    23:00 +13°C° 0.1 mm 3 mps 764 mmHg 96%

    11 Junio, Jueves

    Tiempo Temperatura Precipitaciones Viento Presión Humedad
    00:00 +14°C° 0.1 mm 2 mps 763 mmHg 96%
    01:00 +14°C° 0.1 mm 2 mps 763 mmHg 96%
    02:00 +13°C° 0 mm 3 mps 763 mmHg 96%
    03:00 +13°C° 0 mm 3 mps 763 mmHg 97%
    04:00 +13°C° 0 mm 3 mps 762 mmHg 97%
    05:00 +13°C° 0 mm 3 mps 763 mmHg 96%
    06:00 +12°C° 0 mm 3 mps 763 mmHg 96%
    07:00 +12°C° 0 mm 3 mps 763 mmHg 96%
    08:00 +14°C° 0 mm 3 mps 763 mmHg 88%
    09:00 +18°C° 0 mm 3 mps 763 mmHg 79%
    10:00 +20°C° 0 mm 3 mps 763 mmHg 71%
    11:00 +21°C° 0 mm 2 mps 763 mmHg 64%
    12:00 +23°C° 0 mm 2 mps 762 mmHg 57%
    13:00 +24°C° 0 mm 2 mps 761 mmHg 50%
    14:00 +24°C° 0 mm 2 mps 761 mmHg 55%
    15:00 +22°C° 0 mm 3 mps 761 mmHg 60%
    16:00 +21°C° 0 mm 3 mps 761 mmHg 65%
    17:00 +19°C° 0 mm 3 mps 761 mmHg 73%
    18:00 +17°C° 0 mm 3 mps 761 mmHg 82%
    19:00 +14°C° 0 mm 4 mps 762 mmHg 90%
    20:00 +14°C° 0 mm 4 mps 762 mmHg 91%
    21:00 +13°C° 0 mm 3 mps 762 mmHg 93%
    22:00 +13°C° 0 mm 3 mps 762 mmHg 94%
    23:00 +13°C° 0 mm 3 mps 762 mmHg 94%
    Mostrar más